Regional Weather Roundup
Issued by NWS Albany, NY

Home | Current Version | Previous Version | Text Only | Print | Product List | Glossary Off
Versions: 1 2 3 4 5 6 7 8 9 10 11 12 13 14 15 16 17 18 19 20 21 22 23 24 25 26 27 28 29 30 31 32 33 34 35 36 37 38 39 40 41 42 43 44 45 46 47 48 49 50

000
ASUS41 KALY 231510
RWRALY

NEW YORK STATE HOURLY WEATHER ROUNDUP
NATIONAL WEATHER SERVICE ALBANY NY
1100 AM EDT SAT MAY 23 2015

NOTE: "FAIR" INDICATES FEW OR NO CLOUDS BELOW 12,000 FEET WITH NO
SIGNIFICANT WEATHER AND/OR NO OBSTRUCTIONS TO VISIBILITY.

NYZ032-033-038>043-046>054-057>066-NYZ062>081-231600-
EAST


CITY           SKY/WX    TMP DP  RH WIND       PRES   REMARKS
ALBANY         SUNNY     51  23  33 NW7       30.41R
GLENS FALLS    SUNNY     52  22  30 W8        30.36S
POUGHKEEPSIE   SUNNY     53  25  33 VRB6      30.41S
NEWBURGH       SUNNY     52  28  40 W12       30.42S
MONTGOMERY     SUNNY     55  25  31 N9        30.41S
WHITE PLAINS   SUNNY     53  27  36 NW12      30.41R
ISLIP          MOSUNNY   55  29  36 MISG      30.40R
NEW YORK CITY  MOSUNNY   55  27  34 NW13      30.42S
CENTRAL PARK   SUNNY     56  24  29 NW3       30.45R
$$

NYZ005>009-017-018-044>046-055-056-231600-
CENTRAL


CITY           SKY/WX    TMP DP  RH WIND       PRES   REMARKS
FULTON         SUNNY     53  28  38 SW6       30.44R
SYRACUSE       SUNNY     52  28  39 NW9       30.44R
ROME           SUNNY     49  27  42 W7G20     30.43S
ELMIRA         SUNNY     53  28  38 S6        30.43F
BINGHAMTON     SUNNY     48  26  42 W7        30.41S
MONTICELLO     SUNNY     50  27  40 NW9G20    30.42R
$$

NYZ026>034-041>043-231600-
NORTH


CITY           SKY/WX    TMP DP  RH WIND       PRES   REMARKS
WATERTOWN      SUNNY     49  24  37 W15G23    30.42R
FORT DRUM      NOT AVBL
MASSENA        SUNNY     51  23  33 SW13      30.38S
SARANAC LAKE   SUNNY     46  17  31 W8G18     30.31R
PLATTSBURGH    SUNNY     51  21  30 NW14G20   30.33S
$$

NYZ001>004-010>016-019>021-231600-
WEST


CITY           SKY/WX    TMP DP  RH WIND       PRES   REMARKS
NIAGARA FALLS  SUNNY     56  26  31 SW12      30.43S
BUFFALO        SUNNY     54  25  32 W14       30.44R
DUNKIRK        SUNNY     56  25  30 W10       30.45S
JAMESTOWN      SUNNY     52  28  40 S6        30.44S
WELLSVILLE     SUNNY     52  20  28 VRB5      30.43S
ROCHESTER      SUNNY     56  24  29 NW8       30.44R
PENN YAN       SUNNY     53  28  38 CALM      30.44R
$$

             KEY
       WCI = WIND CHILL INDEX
       VSB = VISIBILITY
       HX  = HEAT INDEX
$$



USA.gov is the U.S. government's official web portal to all federal, state and local government web resources and services.